UAL1746 KIAH-KATL

Flight info

Callsign UAL1746
Flight time 1h 38m
Altitude 37000
Route STRYA8 DPATY MERDN DUUCK ORRKK GNDLF3
Aircraft B738/M-V/N

Departure

Time 2026-05-03 20:19
Airport George Bush Intercontinental Airport (KIAH)

Arrival

Time 2026-05-03 21:57
Airport Hartsfield Jackson Atlanta International Airport (KATL)
Time Latitude Longitude Altitude Speed Heading
2026-05-03 20:15 29.98663 -95.35491 106 ft 21 kts 332°
2026-05-03 20:15 29.98789 -95.35571 106 ft 20 kts 328°
2026-05-03 20:15 29.98831 -95.35673 106 ft 6 kts 243°
2026-05-03 20:15 29.98826 -95.35684 105 ft 0 kts 240°
2026-05-03 20:16 29.98825 -95.35685 105 ft 2 kts 240°
2026-05-03 20:16 29.98798 -95.35738 106 ft 10 kts 240°
2026-05-03 20:17 29.98740 -95.35756 108 ft 8 kts 157°
2026-05-03 20:17 29.98734 -95.35752 107 ft 0 kts 154°
2026-05-03 20:18 29.98660 -95.35709 106 ft 41 kts 152°
2026-05-03 20:18 29.98205 -95.35427 105 ft 106 kts 152°
2026-05-03 20:18 29.97382 -95.34916 108 ft 159 kts 155°
2026-05-03 20:19 29.96367 -95.34324 574 ft 165 kts 152°
2026-05-03 20:19 29.95378 -95.33763 1116 ft 175 kts 153°
2026-05-03 20:19 29.94355 -95.32941 1740 ft 184 kts 131°
2026-05-03 20:19 29.93709 -95.31673 2533 ft 183 kts 109°
2026-05-03 20:20 29.93429 -95.30239 3204 ft 194 kts 85°
2026-05-03 20:20 29.93899 -95.28725 3682 ft 206 kts 54°
2026-05-03 20:20 29.94921 -95.27539 3808 ft 229 kts 34°
2026-05-03 20:20 29.96531 -95.26875 3872 ft 243 kts
2026-05-03 20:21 29.98131 -95.26732 4691 ft 229 kts
2026-05-03 20:21 29.99801 -95.26361 4478 ft 255 kts 17°
2026-05-03 20:21 30.01479 -95.25675 4940 ft 256 kts 30°
2026-05-03 20:21 30.02706 -95.24258 5367 ft 252 kts 66°
2026-05-03 20:22 30.03483 -95.22451 5875 ft 255 kts 50°
2026-05-03 20:22 30.04857 -95.21222 6357 ft 257 kts 22°
2026-05-03 20:22 30.06613 -95.20730 6874 ft 260 kts
2026-05-03 20:22 30.08417 -95.20404 7333 ft 265 kts
2026-05-03 20:23 30.10259 -95.20070 7750 ft 271 kts
2026-05-03 20:23 30.12138 -95.19723 8152 ft 278 kts
2026-05-03 20:23 30.13980 -95.19016 8533 ft 282 kts 26°
2026-05-03 20:23 30.15126 -95.18314 8819 ft 282 kts 26°
2026-05-03 20:24 30.17469 -95.16936 9418 ft 282 kts 24°
2026-05-03 20:24 30.19254 -95.15958 9878 ft 282 kts 23°
2026-05-03 20:24 30.21017 -95.15025 10324 ft 283 kts 22°
2026-05-03 20:24 30.22828 -95.14080 10743 ft 287 kts 22°
2026-05-03 20:25 30.24663 -95.13126 11153 ft 292 kts 23°
2026-05-03 20:25 30.26457 -95.11976 11503 ft 301 kts 31°
2026-05-03 20:25 30.28226 -95.10558 11649 ft 317 kts 34°
2026-05-03 20:25 30.30047 -95.09031 12052 ft 322 kts 34°
2026-05-03 20:26 30.31860 -95.07520 12566 ft 324 kts 33°
2026-05-03 20:26 30.33082 -95.06513 12911 ft 326 kts 33°
2026-05-03 20:26 30.35569 -95.04492 13582 ft 329 kts 32°
2026-05-03 20:26 30.37462 -95.02968 14061 ft 332 kts 32°
2026-05-03 20:27 30.39376 -95.01430 14504 ft 335 kts 32°
2026-05-03 20:27 30.41304 -94.99898 14943 ft 337 kts 31°
2026-05-03 20:27 30.43249 -94.98406 15393 ft 339 kts 30°
2026-05-03 20:27 30.45233 -94.96899 15832 ft 341 kts 30°
2026-05-03 20:28 30.47234 -94.95379 16281 ft 343 kts 30°
2026-05-03 20:28 30.49233 -94.93855 16724 ft 346 kts 30°
2026-05-03 20:28 30.51222 -94.92333 17154 ft 348 kts 30°
2026-05-03 20:28 30.53251 -94.90779 17582 ft 350 kts 30°
2026-05-03 20:29 30.55297 -94.89212 18012 ft 353 kts 30°
2026-05-03 20:29 30.57351 -94.87636 18435 ft 355 kts 30°
2026-05-03 20:29 30.59403 -94.86062 18787 ft 357 kts 29°
2026-05-03 20:29 30.61488 -94.84469 19144 ft 360 kts 29°
2026-05-03 20:30 30.63595 -94.82850 19511 ft 361 kts 29°
2026-05-03 20:30 30.65685 -94.81241 19863 ft 364 kts 28°
2026-05-03 20:30 30.67785 -94.79623 20212 ft 366 kts 28°
2026-05-03 20:30 30.69929 -94.77971 20574 ft 368 kts 28°
2026-05-03 20:31 30.72065 -94.76325 20921 ft 370 kts 27°
2026-05-03 20:31 30.74226 -94.74659 21267 ft 372 kts 27°
2026-05-03 20:31 30.76360 -94.73013 21629 ft 374 kts 27°
2026-05-03 20:31 30.78535 -94.71335 21967 ft 376 kts 27°
2026-05-03 20:32 30.80736 -94.69636 22302 ft 378 kts 27°
2026-05-03 20:32 30.82934 -94.67939 22641 ft 380 kts 26°
2026-05-03 20:32 30.85147 -94.66227 22978 ft 382 kts 26°
2026-05-03 20:32 30.87354 -94.64521 23299 ft 384 kts 26°
2026-05-03 20:33 30.89597 -94.62785 23626 ft 386 kts 26°
2026-05-03 20:33 30.91811 -94.61070 23897 ft 388 kts 26°
2026-05-03 20:33 30.94062 -94.59325 24180 ft 389 kts 26°
2026-05-03 20:33 30.96322 -94.57574 24454 ft 390 kts 26°
2026-05-03 20:34 30.98597 -94.55810 24727 ft 391 kts 26°
2026-05-03 20:34 31.00719 -94.53788 24949 ft 407 kts 43°
2026-05-03 20:34 31.02282 -94.50946 25187 ft 420 kts 56°
2026-05-03 20:34 31.03600 -94.47900 25535 ft 420 kts 57°
2026-05-03 20:35 31.04869 -94.44855 25880 ft 419 kts 57°
2026-05-03 20:35 31.06141 -94.41790 26133 ft 420 kts 57°
2026-05-03 20:35 31.07420 -94.38734 26377 ft 421 kts 57°
2026-05-03 20:35 31.08708 -94.35689 26653 ft 421 kts 56°
2026-05-03 20:36 31.10005 -94.32643 26970 ft 420 kts 56°
2026-05-03 20:36 31.11308 -94.29593 27277 ft 419 kts 56°
2026-05-03 20:36 31.12614 -94.26547 27535 ft 419 kts 56°
2026-05-03 20:36 31.13922 -94.23495 27802 ft 419 kts 56°
2026-05-03 20:37 31.15218 -94.20470 28073 ft 418 kts 56°
2026-05-03 20:37 31.16522 -94.17421 28335 ft 418 kts 56°
2026-05-03 20:37 31.17816 -94.14396 28598 ft 418 kts 56°
2026-05-03 20:37 31.19110 -94.11365 28854 ft 417 kts 56°
2026-05-03 20:38 31.20405 -94.08330 29088 ft 417 kts 56°
2026-05-03 20:38 31.21688 -94.05320 29331 ft 417 kts 56°
2026-05-03 20:38 31.22984 -94.02278 29577 ft 416 kts 56°
2026-05-03 20:38 31.24264 -93.99270 29788 ft 417 kts 56°
2026-05-03 20:39 31.25556 -93.96233 29998 ft 417 kts 56°
2026-05-03 20:39 31.26852 -93.93179 30228 ft 416 kts 56°
2026-05-03 20:39 31.28136 -93.90156 30417 ft 416 kts 55°
2026-05-03 20:39 31.29419 -93.87134 30576 ft 416 kts 56°
2026-05-03 20:40 31.30699 -93.84100 30735 ft 416 kts 57°
2026-05-03 20:40 31.31880 -93.80992 30904 ft 418 kts 59°
2026-05-03 20:40 31.32969 -93.77859 31059 ft 419 kts 60°
2026-05-03 20:40 31.34035 -93.74684 31192 ft 420 kts 61°
2026-05-03 20:41 31.35094 -93.71509 31338 ft 419 kts 61°
2026-05-03 20:41 31.37247 -93.65116 31419 ft 425 kts 60°
2026-05-03 20:42 31.39442 -93.58685 31503 ft 431 kts 60°
2026-05-03 20:42 31.41680 -93.52146 31628 ft 435 kts 60°
2026-05-03 20:42 31.42815 -93.48827 31747 ft 436 kts 60°
2026-05-03 20:43 31.43558 -93.46652 31849 ft 435 kts 60°
2026-05-03 20:43 31.44683 -93.43353 32044 ft 434 kts 60°
2026-05-03 20:43 31.45795 -93.40091 32185 ft 434 kts 60°
2026-05-03 20:43 31.47288 -93.35710 32352 ft 434 kts 60°
2026-05-03 20:44 31.48042 -93.33495 32448 ft 433 kts 60°
2026-05-03 20:44 31.49145 -93.30253 32595 ft 433 kts 60°
2026-05-03 20:44 31.50265 -93.26958 32710 ft 433 kts 60°
2026-05-03 20:44 31.51379 -93.23677 32825 ft 433 kts 60°
2026-05-03 20:45 31.52480 -93.20433 32942 ft 432 kts 60°
2026-05-03 20:45 31.53596 -93.17139 33065 ft 432 kts 60°
2026-05-03 20:45 31.54699 -93.13883 33110 ft 433 kts 60°
2026-05-03 20:46 31.56937 -93.07271 33165 ft 438 kts 60°
2026-05-03 20:46 31.59189 -93.00605 33183 ft 442 kts 61°
2026-05-03 20:47 31.61451 -92.93885 33183 ft 445 kts 61°
2026-05-03 20:47 31.63719 -92.87133 33184 ft 448 kts 61°
2026-05-03 20:48 31.66009 -92.80303 33184 ft 452 kts 61°
2026-05-03 20:48 31.68310 -92.73428 33186 ft 455 kts 62°
2026-05-03 20:49 31.70626 -92.66492 33194 ft 459 kts 62°
2026-05-03 20:49 31.72957 -92.59495 33188 ft 462 kts 62°
2026-05-03 20:50 31.75306 -92.52430 33190 ft 465 kts 62°
2026-05-03 20:50 31.77657 -92.45343 33189 ft 468 kts 62°
2026-05-03 20:51 31.80030 -92.38172 33181 ft 467 kts 62°
2026-05-03 20:51 31.82346 -92.31146 33165 ft 459 kts 62°
2026-05-03 20:52 31.84265 -92.25319 33180 ft 456 kts 62°
2026-05-03 20:53 31.89210 -92.10282 33176 ft 453 kts 63°
2026-05-03 20:53 31.91475 -92.03367 33182 ft 454 kts 63°
2026-05-03 20:54 31.93739 -91.96439 33182 ft 454 kts 63°
2026-05-03 20:54 31.97143 -91.85998 33178 ft 456 kts 63°
2026-05-03 20:55 31.99413 -91.79013 33185 ft 458 kts 63°
2026-05-03 20:55 32.01693 -91.71981 33181 ft 459 kts 64°
2026-05-03 20:56 32.03967 -91.64950 33178 ft 459 kts 64°
2026-05-03 20:56 32.06244 -91.57900 33181 ft 459 kts 64°
2026-05-03 20:57 32.07998 -91.50678 33202 ft 465 kts 77°
2026-05-03 20:57 32.08865 -91.43078 33188 ft 467 kts 79°
2026-05-03 20:58 32.09654 -91.35479 33182 ft 466 kts 79°
2026-05-03 20:58 32.10509 -91.27929 33182 ft 465 kts 78°
2026-05-03 20:59 32.11405 -91.20397 33176 ft 463 kts 78°
2026-05-03 20:59 32.12309 -91.12875 33162 ft 463 kts 78°
2026-05-03 21:00 32.13055 -91.06633 33159 ft 462 kts 78°
2026-05-03 21:00 32.14095 -90.97869 33152 ft 461 kts 78°
2026-05-03 21:01 32.14972 -90.90425 33147 ft 460 kts 78°
2026-05-03 21:01 32.15847 -90.82951 33151 ft 460 kts 79°
2026-05-03 21:02 32.16718 -90.75477 33163 ft 460 kts 79°
2026-05-03 21:02 32.17587 -90.67982 33166 ft 460 kts 79°
2026-05-03 21:03 32.18455 -90.60463 33167 ft 461 kts 79°
2026-05-03 21:03 32.19315 -90.52960 33169 ft 462 kts 79°
2026-05-03 21:04 32.20170 -90.45469 33164 ft 462 kts 79°
2026-05-03 21:04 32.21025 -90.37931 33161 ft 463 kts 79°
2026-05-03 21:05 32.21867 -90.30471 33154 ft 463 kts 79°
2026-05-03 21:05 32.22696 -90.23087 33144 ft 462 kts 79°
2026-05-03 21:06 32.23469 -90.16162 33160 ft 461 kts 79°
2026-05-03 21:06 32.24296 -90.08715 33154 ft 459 kts 79°
2026-05-03 21:07 32.25117 -90.01290 33153 ft 459 kts 79°
2026-05-03 21:07 32.25934 -89.93856 33155 ft 457 kts 79°
2026-05-03 21:08 32.26744 -89.86441 33150 ft 456 kts 79°
2026-05-03 21:08 32.27556 -89.78976 33167 ft 455 kts 79°
2026-05-03 21:09 32.28355 -89.71578 33155 ft 455 kts 79°
2026-05-03 21:09 32.29152 -89.64169 33157 ft 455 kts 79°
2026-05-03 21:10 32.29944 -89.56758 33161 ft 455 kts 79°
2026-05-03 21:10 32.30733 -89.49329 33155 ft 455 kts 79°
2026-05-03 21:11 32.31516 -89.41918 33154 ft 455 kts 79°
2026-05-03 21:11 32.32301 -89.34453 33151 ft 456 kts 79°
2026-05-03 21:12 32.33067 -89.27120 33155 ft 457 kts 79°
2026-05-03 21:12 32.33832 -89.19750 33144 ft 458 kts 80°
2026-05-03 21:13 32.34588 -89.12432 33150 ft 458 kts 80°
2026-05-03 21:13 32.35273 -89.05763 33148 ft 459 kts 80°
2026-05-03 21:14 32.36007 -88.98573 33146 ft 459 kts 80°
2026-05-03 21:14 32.36764 -88.91118 33150 ft 459 kts 81°
2026-05-03 21:15 32.37526 -88.83573 33151 ft 460 kts 81°
2026-05-03 21:15 32.38322 -88.76089 33144 ft 459 kts 79°
2026-05-03 21:16 32.39238 -88.68595 33149 ft 459 kts 79°
2026-05-03 21:16 32.40145 -88.61106 33146 ft 460 kts 79°
2026-05-03 21:17 32.40884 -88.54865 33163 ft 460 kts 80°
2026-05-03 21:17 32.42245 -88.46207 33169 ft 457 kts 72°
2026-05-03 21:18 32.44008 -88.38978 33166 ft 458 kts 71°
2026-05-03 21:18 32.45767 -88.31759 33170 ft 458 kts 72°
2026-05-03 21:19 32.46902 -88.26887 33173 ft 459 kts 72°
2026-05-03 21:19 32.49117 -88.17141 33174 ft 460 kts 73°
2026-05-03 21:20 32.50769 -88.09835 33175 ft 461 kts 73°
2026-05-03 21:20 32.52426 -88.02501 33168 ft 462 kts 73°
2026-05-03 21:21 32.54095 -87.95095 33166 ft 463 kts 74°
2026-05-03 21:21 32.55565 -87.87649 33164 ft 465 kts 76°
2026-05-03 21:22 32.56920 -87.80170 33165 ft 466 kts 77°
2026-05-03 21:22 32.58294 -87.72655 33155 ft 466 kts 76°
2026-05-03 21:23 32.59684 -87.65164 33161 ft 467 kts 76°
2026-05-03 21:23 32.61085 -87.57635 33150 ft 468 kts 76°
2026-05-03 21:24 32.62482 -87.50107 33153 ft 468 kts 77°
2026-05-03 21:24 32.63874 -87.42566 33147 ft 468 kts 77°
2026-05-03 21:25 32.65269 -87.34987 33141 ft 469 kts 77°
2026-05-03 21:25 32.66654 -87.27429 33141 ft 469 kts 77°
2026-05-03 21:26 32.68034 -87.19871 33137 ft 469 kts 77°
2026-05-03 21:26 32.69411 -87.12308 33135 ft 469 kts 77°
2026-05-03 21:27 32.70785 -87.04727 33133 ft 470 kts 77°
2026-05-03 21:27 32.72155 -86.97147 33126 ft 470 kts 77°
2026-05-03 21:28 32.73521 -86.89560 33131 ft 471 kts 78°
2026-05-03 21:28 32.74666 -86.83178 32871 ft 477 kts 78°
2026-05-03 21:29 32.75583 -86.78057 32491 ft 476 kts 78°
2026-05-03 21:29 32.76269 -86.74213 32055 ft 475 kts 78°
2026-05-03 21:29 32.76729 -86.71630 31731 ft 473 kts 77°
2026-05-03 21:29 32.77408 -86.67811 31271 ft 470 kts 77°
2026-05-03 21:30 32.78080 -86.64023 30812 ft 467 kts 77°
2026-05-03 21:30 32.78743 -86.60285 30367 ft 464 kts 77°
2026-05-03 21:30 32.79405 -86.56544 29868 ft 461 kts 77°
2026-05-03 21:30 32.80065 -86.52811 29323 ft 458 kts 77°
2026-05-03 21:31 32.80722 -86.49087 28822 ft 460 kts 77°
2026-05-03 21:31 32.81380 -86.45353 28332 ft 464 kts 77°
2026-05-03 21:31 32.82037 -86.41612 27838 ft 469 kts 77°
2026-05-03 21:31 32.82709 -86.37777 27342 ft 470 kts 77°
2026-05-03 21:32 32.83369 -86.34007 26869 ft 470 kts 77°
2026-05-03 21:32 32.84036 -86.30186 26382 ft 469 kts 78°
2026-05-03 21:32 32.84689 -86.26437 25920 ft 469 kts 78°
2026-05-03 21:32 32.85352 -86.22627 25464 ft 468 kts 78°
2026-05-03 21:33 32.86012 -86.18830 25001 ft 466 kts 78°
2026-05-03 21:33 32.86665 -86.15067 24548 ft 462 kts 78°
2026-05-03 21:33 32.87314 -86.11317 24215 ft 463 kts 78°
2026-05-03 21:33 32.87959 -86.07579 24183 ft 464 kts 78°
2026-05-03 21:34 32.88610 -86.03802 24136 ft 468 kts 78°
2026-05-03 21:34 32.89269 -85.99974 23763 ft 472 kts 78°
2026-05-03 21:34 32.89915 -85.96213 23367 ft 466 kts 78°
2026-05-03 21:34 32.90564 -85.92425 22869 ft 462 kts 78°
2026-05-03 21:35 32.91197 -85.88722 22358 ft 458 kts 78°
2026-05-03 21:35 32.91831 -85.85008 21831 ft 454 kts 78°
2026-05-03 21:35 32.92459 -85.81322 21330 ft 451 kts 78°
2026-05-03 21:35 32.93078 -85.77685 20819 ft 447 kts 78°
2026-05-03 21:36 32.93694 -85.74058 20327 ft 444 kts 78°
2026-05-03 21:36 32.94301 -85.70477 19821 ft 442 kts 78°
2026-05-03 21:36 32.94908 -85.66888 19330 ft 439 kts 78°
2026-05-03 21:36 32.95503 -85.63366 18835 ft 438 kts 78°
2026-05-03 21:37 32.96106 -85.59788 18325 ft 435 kts 78°
2026-05-03 21:37 32.96695 -85.56289 17777 ft 433 kts 78°
2026-05-03 21:37 32.97285 -85.52772 17242 ft 430 kts 78°
2026-05-03 21:37 32.98060 -85.49358 16690 ft 428 kts 67°
2026-05-03 21:38 32.99316 -85.46152 16171 ft 424 kts 61°
2026-05-03 21:38 33.00729 -85.43082 15779 ft 418 kts 59°
2026-05-03 21:38 33.02121 -85.40111 15540 ft 410 kts 60°
2026-05-03 21:38 33.03457 -85.37161 15284 ft 402 kts 60°
2026-05-03 21:39 33.04733 -85.34229 15038 ft 394 kts 61°
2026-05-03 21:39 33.05954 -85.31335 14799 ft 388 kts 62°
2026-05-03 21:39 33.07139 -85.28472 14549 ft 383 kts 62°
2026-05-03 21:39 33.08307 -85.25624 14328 ft 379 kts 62°
2026-05-03 21:40 33.09458 -85.22808 14101 ft 380 kts 62°
2026-05-03 21:40 33.10619 -85.19966 13861 ft 383 kts 62°
2026-05-03 21:40 33.11799 -85.17078 13597 ft 382 kts 62°
2026-05-03 21:40 33.12948 -85.14262 13344 ft 379 kts 62°
2026-05-03 21:41 33.14094 -85.11454 13081 ft 376 kts 62°
2026-05-03 21:41 33.15239 -85.08648 12822 ft 374 kts 62°
2026-05-03 21:41 33.16366 -85.05884 12577 ft 372 kts 62°
2026-05-03 21:41 33.17491 -85.03120 12323 ft 370 kts 62°
2026-05-03 21:42 33.18913 -85.00577 12103 ft 365 kts 45°
2026-05-03 21:42 33.20663 -84.98381 12107 ft 370 kts 44°
2026-05-03 21:42 33.22437 -84.96132 12036 ft 369 kts 45°
2026-05-03 21:42 33.24181 -84.93894 12018 ft 365 kts 45°
2026-05-03 21:43 33.25896 -84.91672 12009 ft 365 kts 45°
2026-05-03 21:43 33.27625 -84.89419 12003 ft 371 kts 45°
2026-05-03 21:43 33.29404 -84.87095 12029 ft 386 kts 45°
2026-05-03 21:43 33.31210 -84.84739 12012 ft 389 kts 45°
2026-05-03 21:44 33.33071 -84.82374 12004 ft 389 kts 43°
2026-05-03 21:44 33.34985 -84.80123 12006 ft 388 kts 41°
2026-05-03 21:44 33.36937 -84.77890 12027 ft 388 kts 41°
2026-05-03 21:44 33.38889 -84.75661 12013 ft 387 kts 41°
2026-05-03 21:45 33.40807 -84.73457 11994 ft 373 kts 42°
2026-05-03 21:45 33.42637 -84.71335 11990 ft 354 kts 41°
2026-05-03 21:45 33.44345 -84.69348 12007 ft 336 kts 42°
2026-05-03 21:45 33.45980 -84.67445 11979 ft 321 kts 42°
2026-05-03 21:46 33.47544 -84.65610 11992 ft 304 kts 41°
2026-05-03 21:46 33.49014 -84.63898 11971 ft 287 kts 41°
2026-05-03 21:46 33.50404 -84.62275 12019 ft 269 kts 41°
2026-05-03 21:46 33.51704 -84.60760 11998 ft 259 kts 41°
2026-05-03 21:47 33.52990 -84.59176 11495 ft 271 kts 52°
2026-05-03 21:47 33.53682 -84.57083 11158 ft 268 kts 81°
2026-05-03 21:47 33.53748 -84.54876 10821 ft 261 kts 89°
2026-05-03 21:47 33.53724 -84.52748 10477 ft 256 kts 89°
2026-05-03 21:48 33.53705 -84.50593 10127 ft 255 kts 89°
2026-05-03 21:48 33.53697 -84.48477 9810 ft 254 kts 88°
2026-05-03 21:48 33.53690 -84.46365 9413 ft 255 kts 89°
2026-05-03 21:48 33.53688 -84.44253 9049 ft 254 kts 88°
2026-05-03 21:49 33.53688 -84.42130 8699 ft 251 kts 88°
2026-05-03 21:49 33.53686 -84.40063 8343 ft 249 kts 88°
2026-05-03 21:49 33.53686 -84.38006 8014 ft 246 kts 88°
2026-05-03 21:49 33.53688 -84.35974 7649 ft 241 kts 88°
2026-05-03 21:50 33.53690 -84.33980 7306 ft 237 kts 88°
2026-05-03 21:50 33.53684 -84.32005 6991 ft 236 kts 88°
2026-05-03 21:50 33.53689 -84.30042 6635 ft 237 kts 88°
2026-05-03 21:50 33.53692 -84.28042 6158 ft 239 kts 88°
2026-05-03 21:51 33.53699 -84.26071 5677 ft 238 kts 88°
2026-05-03 21:51 33.53698 -84.24094 5200 ft 236 kts 89°
2026-05-03 21:51 33.53700 -84.22118 4721 ft 235 kts 89°
2026-05-03 21:51 33.53984 -84.20212 4186 ft 233 kts 61°
2026-05-03 21:52 33.55026 -84.18797 3722 ft 229 kts 29°
2026-05-03 21:52 33.56512 -84.18237 3317 ft 216 kts 358°
2026-05-03 21:52 33.57951 -84.18323 3175 ft 203 kts 354°
2026-05-03 21:52 33.59391 -84.18425 3112 ft 209 kts 354°
2026-05-03 21:53 33.60755 -84.18769 3047 ft 191 kts 333°
2026-05-03 21:53 33.61825 -84.19585 3133 ft 173 kts 323°
2026-05-03 21:53 33.62818 -84.20479 3080 ft 184 kts 310°
2026-05-03 21:53 33.63525 -84.21735 3129 ft 175 kts 293°
2026-05-03 21:54 33.63627 -84.23129 3063 ft 170 kts 264°
2026-05-03 21:54 33.63477 -84.24597 2814 ft 178 kts 267°
2026-05-03 21:54 33.63442 -84.26050 2715 ft 173 kts 267°
2026-05-03 21:54 33.63349 -84.27495 2888 ft 177 kts 264°
2026-05-03 21:55 33.63178 -84.29012 3100 ft 186 kts 268°
2026-05-03 21:55 33.63181 -84.30563 3108 ft 184 kts 276°
2026-05-03 21:55 33.63231 -84.32078 2911 ft 182 kts 274°
2026-05-03 21:55 33.63297 -84.33596 2485 ft 182 kts 272°
2026-05-03 21:56 33.63219 -84.35112 2317 ft 181 kts 264°
2026-05-03 21:56 33.63170 -84.36613 2081 ft 180 kts 271°
2026-05-03 21:56 33.63193 -84.38043 1786 ft 169 kts 271°
2026-05-03 21:56 33.63192 -84.39428 1544 ft 159 kts 269°
2026-05-03 21:57 33.63184 -84.40733 1219 ft 153 kts 269°
2026-05-03 21:57 33.63182 -84.41982 1013 ft 144 kts 269°
2026-05-03 21:57 33.63183 -84.43075 1007 ft 115 kts 270°
2026-05-03 21:57 33.63182 -84.43782 1005 ft 47 kts 270°
2026-05-03 21:58 33.63201 -84.44060 1004 ft 30 kts 283°
2026-05-03 21:58 33.63266 -84.44236 1005 ft 11 kts 315°
2026-05-03 21:58 33.63309 -84.44263 1005 ft 7 kts 354°
2026-05-03 21:58 33.63351 -84.44241 1005 ft 7 kts 38°
2026-05-03 21:59 33.63429 -84.44194 1005 ft 19 kts
2026-05-03 21:59 33.63561 -84.44193 1006 ft 17 kts 358°
2026-05-03 21:59 33.63655 -84.44164 1006 ft 14 kts 33°
2026-05-03 21:59 33.63740 -84.44117 1005 ft 14 kts
2026-05-03 22:00 33.63843 -84.44117 1005 ft 16 kts 359°
2026-05-03 22:00 33.63975 -84.44115 1005 ft 10 kts
2026-05-03 22:00 33.64040 -84.44114 1005 ft 12 kts
2026-05-03 22:00 33.64166 -84.44115 1005 ft 22 kts 359°
2026-05-03 22:01 33.64245 -84.44137 1005 ft 9 kts 349°
2026-05-03 22:01 33.64295 -84.44177 1005 ft 4 kts 300°
2026-05-03 22:01 33.64299 -84.44189 1005 ft 0 kts 295°